COSMOS 1275 DEB, 12725

Orbit data source: Space-Track

COSMOS 1275 DEB, 12725 is space debris in LEO originally from a launch on Thu, 04 Jun 1981 UTC launched from the Plesetsk Missile And Space Complex (PKMTR). Debris objects in space refer to the collection of defunct objects orbiting the Earth. Examples of debris include non-operational satellites, rocket bodies, and fragments generated from explosions, collisions, or faulty payload assembly.

Loading next visibility...
Identifier
12725, 1981-053BS
Orbit
LEO
Country
Flag of CISCIS
Related business
Manufacturer
Unknown
Mission
Spacecraft
Bus & Motor
Unknown
Mass
Unknown
Launch date (UTC)
1981-06-04 (45 years ago)
Launch vehicle
Unknown
Launch site
Plesetsk Missile And Space Complex (PKMTR)
Object type
Payload
Rocket body
Debris
Shape & HBR
Unknown shape, 0.1 m
Radar Cross Section
Medium (>0.1 m² and <1 m²)

Expand to show TLE details & history
Last TLE update: 9 hours ago

TLE from 9 hours ago
0 COSMOS 1275 DEB
1 12725U 81053BS  26150.52013038  .00001431  00000-0  11998-2 0  9999
2 12725  83.1386 347.2185 0091501  58.0491 331.1959 13.85572217239120
Epoch: 2026-05-30T12:28Z
TLE epoch observation values (Epoch: 2026-05-30T12:28:59.264Z)
Latitude
28.55458°
Longitude
-84.32866°
Altitude
889.149 km
Speed
7.44 km/s
True Right ascension
23h 23m 48s
True Declination
28° 24' 47"
Sunlit
Object was in daylight at epoch
Visualization orbit readout
Latitude
Unknown
Longitude
Unknown
Altitude
Unknown
Speed
Unknown
Apparent Right ascension
Unknown
Apparent Declination
Unknown
Sunlit
N/A
Visualization observer readout
Local Sidereal Time
07:02:52
Azimuth
Unknown
Elevation
Unknown
Doppler factor
Unknown
Orbital elements
Apogee altitude
1,008.289 km
Perigee altitude
874.342 km
Semi-major axis
7,319.452 km
Eccentricity
0.00915
Inclination
83.1386°
RAAN
347.2185°
Arg. of periapsis
58.0491°
True anomaly
330.6856°
Mean anomaly
331.1959°
Eccentric anomaly
330.94126°
Mean motion
3.46597 °/min
Orbital period
103.87 mins
BSTAR
0.0011998
Loading maneuver chart data...
Computing Atmospheric mass density...
Loading historical data...
Loading historical data...
Loading historical data...
Loading historical data...
Loading historical data...
Loading historical data...
Loading historical data...

Documentation

Showing up to 5 results
|